Atka, AK

9:03 PM HDT on May 27, 2017 (GMT -0900)
Atka

Weather History for PAAK - February, 2014

Change the Weather History Date:

Saturday, February 15, 2014

  Actual Average (PADK) Record (PADK)
Temperature  
Mean Temperature 32 °F -  
Max Temperature 35 °F 36 °F 45 °F (1952)
Min Temperature 28 °F 28 °F 19 °F (1953)
Degree Days  
Heating Degree Days 34    
Moisture  
Dew Point 25 °F    
Average Humidity 75    
Maximum Humidity 87    
Minimum Humidity 60    
Precipitation  
Precipitation 0.00 in - - ()
Sea Level Pressure  
Sea Level Pressure 29.34 in    
Wind  
Wind Speed 24 mph (WNW)    
Max Wind Speed 34 mph    
Max Gust Speed 48 mph    
Visibility 7 miles    
Events      
Averages and records for this station are not official NWS values.
T = Trace of Precipitation, MM = Missing Value Source: NWS Daily Summary

Daily Weather History Graph

Daily Weather History Graph

Search for Another Location

Airport or City:

Trip Planner

Search our weather history database for the weather conditions in past years. The results will help you decide how hot, cold, wet, or windy it might be!

Date:

Astronomy

Feb. 15, 2014 Rise Set
Actual Time 8:51 AM HST 6:51 PM HST
Civil Twilight 8:16 AM HST 7:26 PM HST
Nautical Twilight 7:36 AM HST 8:05 PM HST
Astronomical Twilight 6:57 AM HST 8:45 PM HST
Moon 8:19 PM HST (2/15) 8:45 AM HST (2/15)
Length of Visible Light 11h 09m
Length of Day
9h 59m
Full, 99% of the Moon is Illuminated
Feb 15
Full
Feb 22
Last Quarter
Feb 28
New
Mar 8
First Quarter
Mar 16
Full

Hourly Weather History & Observations

Time (HST) Temp. Windchill Dew Point Humidity Pressure Visibility Wind Dir Wind Speed Gust Speed Precip Events Conditions
12:16 AM 33.8 °F 21.9 °F 28.4 °F 81% 29.34 in 10.0 mi West 21.9 mph 31.1 mph N/A   Mostly Cloudy
12:36 AM - - - N/A% 29.32 in 10.0 mi West 28.8 mph 38.0 mph N/A   Overcast
12:56 AM - - - N/A% 29.33 in 2.5 mi West 25.3 mph 41.4 mph N/A   Overcast
1:16 AM - - - N/A% 29.32 in 10.0 mi West 29.9 mph 36.8 mph N/A   Overcast
1:36 AM 33.8 °F 22.2 °F 26.6 °F 75% 29.32 in 10.0 mi West 20.7 mph 33.4 mph N/A   Mostly Cloudy
1:56 AM 33.8 °F 22.8 °F 26.6 °F 75% 29.31 in 8.0 mi West 18.4 mph 38.0 mph N/A   Mostly Cloudy
2:16 AM - - - N/A% 29.30 in 10.0 mi WNW 25.3 mph 36.8 mph N/A   Overcast
2:36 AM - - - N/A% 29.30 in 1.0 mi West 33.4 mph 40.3 mph N/A   Overcast
2:56 AM 33.8 °F 20.5 °F 26.6 °F 75% 29.30 in 7.0 mi West 27.6 mph 39.1 mph N/A   Overcast
3:16 AM - - - N/A% 29.28 in 10.0 mi WNW 31.1 mph 40.3 mph N/A   Mostly Cloudy
3:36 AM - - - N/A% 29.29 in 10.0 mi WNW 28.8 mph 40.3 mph N/A   Mostly Cloudy
3:56 AM 33.8 °F 20.3 °F 26.6 °F 75% 29.29 in 1.5 mi West 28.8 mph 36.8 mph N/A   Overcast
4:16 AM 33.8 °F 21.3 °F 26.6 °F 75% 29.29 in 10.0 mi West 24.2 mph 34.5 mph N/A   Overcast
4:36 AM 33.8 °F 22.2 °F 26.6 °F 75% 29.28 in 10.0 mi West 20.7 mph 29.9 mph N/A   Overcast
4:56 AM 35.6 °F 21.9 °F 26.6 °F 70% 29.27 in 10.0 mi WNW 33.4 mph 40.3 mph N/A   Overcast
5:16 AM 35.6 °F 23.7 °F 24.8 °F 65% 29.27 in 10.0 mi WNW 24.2 mph 34.5 mph N/A   Mostly Cloudy
5:36 AM 32.0 °F 17.9 °F 26.6 °F 80% 29.28 in 1.2 mi West 28.8 mph 48.3 mph N/A   Overcast
5:56 AM 32.0 °F 18.6 °F 26.6 °F 80% 29.28 in 6.0 mi West 25.3 mph 42.6 mph N/A   Mostly Cloudy
6:16 AM - - - N/A% 29.27 in 10.0 mi West 26.5 mph 39.1 mph N/A   Mostly Cloudy
6:36 AM - - - N/A% 29.27 in 10.0 mi WNW 29.9 mph 41.4 mph N/A   Overcast
6:56 AM - - - N/A% 29.27 in 10.0 mi WNW 32.2 mph 39.1 mph N/A   Overcast
7:16 AM - - - N/A% 29.26 in 10.0 mi West 32.2 mph 39.1 mph N/A   Overcast
7:36 AM - - - N/A% 29.27 in 1.5 mi NW 34.5 mph 44.9 mph N/A   Overcast
7:56 AM - - - N/A% 29.28 in 0.5 mi NW 23.0 mph 39.1 mph N/A   Overcast
8:16 AM - - - N/A% 29.28 in 0.8 mi NW 28.8 mph 35.7 mph N/A   Overcast
8:36 AM 33.8 °F 21.9 °F 26.6 °F 75% 29.29 in 5.0 mi WNW 21.9 mph 31.1 mph N/A   Overcast
8:56 AM 32.0 °F 18.1 °F 26.6 °F 80% 29.30 in 0.5 mi WNW 27.6 mph 38.0 mph N/A   Overcast
9:16 AM 32.0 °F 18.6 °F 26.6 °F 80% 29.31 in 0.5 mi WNW 25.3 mph 33.4 mph N/A   Overcast
9:36 AM - - - N/A% 29.31 in 0.2 mi WNW 28.8 mph 34.5 mph N/A   Overcast
9:56 AM 33.8 °F 21.0 °F 26.6 °F 75% 29.32 in 3.0 mi WNW 25.3 mph 31.1 mph N/A   Overcast
10:16 AM 33.8 °F 21.9 °F 26.6 °F 75% 29.33 in 1.5 mi WNW 21.9 mph 36.8 mph N/A   Overcast
10:36 AM 33.8 °F 23.5 °F 26.6 °F 75% 29.33 in 10.0 mi NW 16.1 mph 25.3 mph N/A   Overcast
10:56 AM 33.8 °F 20.8 °F 28.4 °F 81% 29.33 in 10.0 mi NW 26.5 mph 33.4 mph N/A   Overcast
11:16 AM - - - N/A% 29.32 in 5.0 mi NW 28.8 mph 33.4 mph N/A   Overcast
11:36 AM 33.8 °F 22.2 °F 26.6 °F 75% 29.34 in 10.0 mi WNW 20.7 mph 25.3 mph N/A   Mostly Cloudy
11:56 AM 32.0 °F 19.2 °F 26.6 °F 80% 29.35 in 0.5 mi WNW 23.0 mph 33.4 mph N/A   Overcast
12:16 PM 33.8 °F 22.2 °F 26.6 °F 75% 29.35 in 10.0 mi WNW 20.7 mph 32.2 mph N/A   Mostly Cloudy
12:36 PM 33.8 °F 23.5 °F 26.6 °F 75% 29.35 in 10.0 mi NW 16.1 mph 24.2 mph N/A   Mostly Cloudy
12:56 PM 35.6 °F 23.4 °F 26.6 °F 70% 29.35 in 10.0 mi WNW 25.3 mph 31.1 mph N/A   Overcast
1:16 PM 32.0 °F 19.5 °F 28.4 °F 87% 29.35 in 0.5 mi NW 21.9 mph 33.4 mph N/A   Overcast
1:36 PM 33.8 °F 22.5 °F 28.4 °F 81% 29.35 in 10.0 mi WNW 19.6 mph 24.2 mph N/A   Overcast
1:56 PM 33.8 °F 24.3 °F 28.4 °F 81% 29.35 in 10.0 mi NW 13.8 mph - N/A   Overcast
2:16 PM 33.8 °F 21.9 °F 24.8 °F 70% 29.34 in 10.0 mi West 21.9 mph 33.4 mph N/A   Overcast
2:36 PM 35.6 °F 24.8 °F 23.0 °F 60% 29.35 in 10.0 mi WNW 19.6 mph 26.5 mph N/A   Mostly Cloudy
2:56 PM 35.6 °F 24.2 °F 24.8 °F 65% 29.34 in 10.0 mi West 21.9 mph 29.9 mph N/A   Mostly Cloudy
3:16 PM 33.8 °F 22.8 °F 24.8 °F 70% 29.34 in 10.0 mi WNW 18.4 mph 26.5 mph N/A   Mostly Cloudy
3:36 PM 35.6 °F 23.7 °F 24.8 °F 65% 29.34 in 10.0 mi WNW 24.2 mph 35.7 mph N/A   Mostly Cloudy
3:56 PM 35.6 °F 24.0 °F 23.0 °F 60% 29.34 in 10.0 mi WNW 23.0 mph 29.9 mph N/A   Overcast
4:16 PM 33.8 °F 21.3 °F 26.6 °F 75% 29.34 in 10.0 mi NW 24.2 mph - N/A   Overcast
4:36 PM 33.8 °F 20.8 °F 26.6 °F 75% 29.35 in 4.0 mi NW 26.5 mph 31.1 mph N/A   Overcast
4:56 PM 32.0 °F 19.2 °F 24.8 °F 75% 29.36 in 10.0 mi WNW 23.0 mph 27.6 mph N/A   Mostly Cloudy
5:16 PM 32.0 °F 20.5 °F 26.6 °F 80% 29.36 in 1.5 mi NW 18.4 mph 27.6 mph N/A   Overcast
5:36 PM 32.0 °F 18.6 °F 26.6 °F 80% 29.36 in 0.8 mi WNW 25.3 mph 29.9 mph N/A   Overcast
5:56 PM 32.0 °F 20.8 °F 26.6 °F 80% 29.36 in 1.0 mi WNW 17.3 mph 26.5 mph N/A   Overcast
6:16 PM 32.0 °F 20.8 °F 26.6 °F 80% 29.36 in 10.0 mi WNW 17.3 mph 20.7 mph N/A   Mostly Cloudy
6:36 PM 32.0 °F 20.8 °F 24.8 °F 75% 29.36 in 10.0 mi WNW 17.3 mph - N/A   Scattered Clouds
6:56 PM 32.0 °F 21.6 °F 26.6 °F 80% 29.36 in 4.0 mi West 15.0 mph - N/A   Overcast
7:16 PM 32.0 °F 24.2 °F 26.6 °F 80% 29.37 in 7.0 mi WNW 9.2 mph 17.3 mph N/A   Overcast
7:36 PM 30.2 °F 20.2 °F 24.8 °F 80% 29.38 in 10.0 mi WNW 12.7 mph - N/A   Mostly Cloudy
7:56 PM 30.2 °F 20.2 °F 23.0 °F 75% 29.38 in 10.0 mi NW 12.7 mph 17.3 mph N/A   Overcast
8:16 PM 30.2 °F 20.8 °F 23.0 °F 75% 29.39 in 10.0 mi WNW 11.5 mph - N/A   Overcast
8:36 PM 30.2 °F 21.9 °F 23.0 °F 75% 29.39 in 10.0 mi NW 9.2 mph - N/A   Overcast
8:56 PM 30.2 °F 20.8 °F 24.8 °F 80% 29.40 in 10.0 mi NNW 11.5 mph - N/A   Overcast
9:16 PM 30.2 °F 20.8 °F 21.2 °F 69% 29.41 in 10.0 mi NW 11.5 mph - N/A   Mostly Cloudy
9:36 PM 30.2 °F 19.8 °F 23.0 °F 75% 29.41 in 7.0 mi NW 13.8 mph 19.6 mph N/A   Mostly Cloudy
9:56 PM 30.2 °F 18.5 °F 23.0 °F 75% 29.42 in 10.0 mi NNW 17.3 mph - N/A   Mostly Cloudy
10:16 PM 30.2 °F 18.9 °F 23.0 °F 75% 29.42 in 10.0 mi NNW 16.1 mph - N/A   Overcast
10:36 PM 30.2 °F 19.3 °F 21.2 °F 69% 29.43 in 10.0 mi NNW 15.0 mph - N/A   Overcast
10:56 PM 28.4 °F 16.6 °F 21.2 °F 74% 29.44 in 6.0 mi NNW 16.1 mph - N/A   Overcast
11:16 PM 28.4 °F 17.5 °F 21.2 °F 74% 29.44 in 9.0 mi NNW 13.8 mph - N/A   Overcast
11:36 PM 28.4 °F 15.8 °F 21.2 °F 74% 29.45 in 10.0 mi NNW 18.4 mph - N/A   Overcast
11:56 PM 28.4 °F 18.0 °F 19.4 °F 69% 29.46 in 10.0 mi NW 12.7 mph - N/A   Overcast